GLOBALSTAR M037 [+]

Last updated on July 6, 2021, 3:36 p.m. UTC

1 25652U 99012D   21186.91659955 -.00000045  00000-0  32816-3 0  9991
2 25652  51.9995 255.8353 0002040 218.7837 312.8092 12.62340010 29121
UTC
Height (km)
Latitude
Longitude
Inclination
Orbital Period
UTC large
Height (km)
Speed (km/s)
/
Latitude / Longitude
Inclination (degrees)
Orbital Period (minutes)
Azimuth
Elevation
Range (km)
Doppler Factor
iOS Compass Heading
iOS Angle